DW8744 Weather Reports


time (UTC)temp
F
wind
direction
speed
knots
gust
knots
rain 1hr
in
rain 24hr
in
rain mn
in
humidity
%
barometer
mb
20260507201543 53 146 0.9 3.5 0.00 0.00 0.00 69 1015.1
20260507200041 53 168 1.7 4.3 0.00 0.00 0.00 71 1015.0
20260507194531 53 165 1.7 4.3 0.00 0.00 0.00 71 1014.9
20260507193029 53 180 0.9 4.3 0.00 0.00 0.00 72 1014.7
20260507191537 54 192 1.7 4.3 0.00 0.00 0.00 71 1014.8
20260507190046 54 235 2.6 5.2 0.00 0.00 0.00 71 1014.7
20260507184555 55 211 1.7 6.1 0.00 0.00 0.00 71 1014.6
20260507183108 55 221 1.7 8.7 0.00 0.00 0.00 71 1014.6
20260507181506 55 233 3.5 6.1 0.00 0.00 0.00 70 1014.6
20260507180028 55 229 1.7 5.2 0.00 0.00 0.00 72 1014.5
20260507174516 55 243 2.6 7.8 0.00 0.00 0.00 71 1014.3
20260507173054 56 221 3.5 8.7 0.00 0.00 0.00 72 1014.4
20260507171525 56 211 4.3 8.7 0.00 0.00 0.00 70 1014.4
20260507170045 57 189 2.6 7.8 0.00 0.00 0.00 68 1014.4
20260507164534 57 216 1.7 5.2 0.00 0.00 0.00 70 1014.5
20260507163028 55 201 0.9 2.6 0.00 0.00 0.00 73 1014.5
20260507161536 54 226 0.0 2.6 0.00 0.00 0.00 76 1014.5
20260507160042 54 195 0.0 1.7 0.00 0.00 0.00 78 1014.5
20260507154548 54 226 0.0 1.7 0.00 0.00 0.00 78 1014.5
20260507153104 54 216 0.9 2.6 0.00 0.00 0.00 77 1014.6
20260507151544 55 234 1.7 4.3 0.00 0.00 0.00 73 1014.5
20260507150054 57 214 2.6 5.2 0.00 0.00 0.00 66 1014.4
20260507144554 57 212 3.5 6.1 0.00 0.00 0.00 65 1014.3
20260507143004 57 137 2.6 5.2 0.00 0.00 0.00 67 1014.5
20260507141600 57 212 1.7 7.0 0.00 0.00 0.00 66 1014.6
20260507140010 57 181 3.5 7.0 0.00 0.00 0.00 63 1014.7
20260507134517 57 187 5.2 9.6 0.00 0.00 0.00 62 1014.7
20260507133009 58 103 5.2 9.6 0.00 0.00 0.00 62 1014.5
20260507131504 58 229 5.2 12.2 0.00 0.00 0.00 60 1014.6
20260507130017 59 126 5.2 10.4 0.00 0.00 0.00 59 1014.7
20260507124509 59 122 2.6 8.7 0.00 0.00 0.00 62 1014.6
20260507123006 58 177 3.5 7.8 0.00 0.00 0.00 62 1014.7
20260507121601 58 223 5.2 8.7 0.00 0.00 0.00 62 1014.8
20260507120101 58 200 4.3 10.4 0.00 0.00 0.00 62 1014.9
20260507114557 57 203 3.5 7.8 0.00 0.00 0.00 64 1015.0
20260507113049 56 136 4.3 11.3 0.00 0.00 0.00 66 1015.1
20260507111541 56 158 4.3 11.3 0.00 0.00 0.00 67 1015.1
20260507110056 55 206 2.6 8.7 0.00 0.00 0.00 68 1015.2
20260507104557 54 193 2.6 6.1 0.00 0.00 0.00 71 1015.3
20260507103109 53 129 3.5 9.6 0.00 0.00 0.00 71 1015.3
20260507101547 52 132 5.2 9.6 0.00 0.00 0.00 71 1015.3
20260507100103 52 98 2.6 7.0 0.00 0.00 0.00 72 1015.3
20260507094542 51 145 1.7 6.1 0.00 0.00 0.00 73 1015.3
20260507093044 51 101 3.5 6.1 0.00 0.00 0.00 73 1015.3
20260507091548 51 126 3.5 6.1 0.00 0.00 0.00 73 1015.3
20260507090050 51 148 4.3 8.7 0.00 0.00 0.00 73 1015.3
20260507084548 51 131 3.5 7.8 0.00 0.00 0.00 73 1015.1
20260507083007 50 168 4.3 7.8 0.00 0.00 0.00 74 1015.1
20260507081519 50 164 3.5 7.8 0.00 0.00 0.00 75 1015.2
20260507080011 49 153 3.5 7.8 0.00 0.00 0.00 76 1015.0
20260507074522 49 194 3.5 7.0 0.00 0.00 0.00 76 1015.1
20260507073025 49 142 2.6 6.1 0.00 0.00 0.00 77 1015.0
20260507071530 49 141 2.6 6.1 0.00 0.00 0.00 77 1015.0
20260507070025 48 124 1.7 4.3 0.00 0.00 0.00 77 1014.9